QPF
0.14 0.14 0.16 0.19 0.20 0.22 0.22 0.20 0.19 0.19 0.21 0.24 0.28 0.27 0.24 0.23 0.21 0.17 0.14 0.11 0.09 0.07 0.06 0.04 0.03 0.02 0.01 0.01 0.00 0.00 0.00 0.01 0.01 0.01 0.01 0.00 0.00 0.00 0.00 0.00 0.00 0.00 0.00
0.14 0.19 0.18 0.20 0.23 0.22 0.19 0.17 0.17 0.17 0.19 0.23 0.25 0.25 0.24 0.22 0.20 0.16 0.15 0.13 0.11 0.09 0.07 0.06 0.04 0.03 0.02 0.01 0.01 0.00 0.01 0.01 0.01 0.01 0.00 0.00 0.00 0.00 0.00 0.00 0.00 0.00 0.00
0.10 0.17 0.24 0.26 0.26 0.25 0.22 0.19 0.16 0.15 0.15 0.18 0.22 0.21 0.21 0.19 0.19 0.15 0.13 0.12 0.11 0.09 0.08 0.07 0.05 0.04 0.03 0.02 0.01 0.01 0.01 0.01 0.01 0.00 0.00 0.01 0.01 0.00 0.00 0.00 0.00 0.00 0.00
0.06 0.11 0.20 0.27 0.30 0.29 0.24 0.21 0.19 0.14 0.12 0.14 0.18 0.18 0.17 0.16 0.15 0.15 0.13 0.11 0.12 0.10 0.09 0.07 0.07 0.05 0.03 0.02 0.02 0.02 0.02 0.02 0.01 0.01 0.01 0.01 0.00 0.00 0.00 0.00 0.00 0.00 0.00
0.05 0.09 0.15 0.22 0.28 0.32 0.27 0.22 0.19 0.15 0.10 0.11 0.15 0.17 0.16 0.14 0.13 0.12 0.12 0.11 0.11 0.11 0.10 0.08 0.08 0.07 0.05 0.04 0.03 0.03 0.02 0.02 0.02 0.02 0.01 0.01 0.00 0.00 0.00 0.00 0.00 0.00 0.00
0.05 0.07 0.11 0.16 0.21 0.31 0.32 0.26 0.21 0.15 0.10 0.10 0.14 0.16 0.17 0.14 0.12 0.11 0.10 0.08 0.09 0.10 0.10 0.09 0.08 0.08 0.08 0.06 0.04 0.03 0.02 0.02 0.02 0.01 0.01 0.00 0.00 0.00 0.00 0.00 0.00 0.00 0.00
0.04 0.05 0.09 0.11 0.15 0.22 0.31 0.31 0.25 0.18 0.12 0.10 0.10 0.12 0.13 0.11 0.10 0.10 0.10 0.08 0.09 0.09 0.09 0.10 0.10 0.09 0.09 0.08 0.06 0.04 0.03 0.02 0.01 0.00 0.00 0.00 0.00 0.00 0.00 0.00 0.00 0.00 0.00
0.04 0.04 0.06 0.07 0.10 0.15 0.26 0.31 0.28 0.22 0.16 0.12 0.10 0.09 0.11 0.10 0.09 0.09 0.08 0.08 0.09 0.09 0.09 0.09 0.11 0.11 0.10 0.08 0.06 0.03 0.02 0.01 0.01 0.00 0.00 0.00 0.00 0.00 0.01 0.01 0.01 0.00 0.00
0.03 0.04 0.04 0.04 0.06 0.10 0.18 0.28 0.26 0.25 0.19 0.15 0.12 0.09 0.09 0.10 0.10 0.09 0.09 0.08 0.07 0.08 0.08 0.08 0.09 0.08 0.08 0.08 0.06 0.04 0.02 0.01 0.01 0.01 0.01 0.01 0.01 0.01 0.01 0.01 0.01 0.00 0.00
0.03 0.03 0.02 0.02 0.03 0.06 0.11 0.19 0.24 0.23 0.20 0.17 0.15 0.12 0.10 0.08 0.09 0.09 0.10 0.07 0.06 0.07 0.07 0.08 0.09 0.09 0.08 0.07 0.06 0.05 0.03 0.01 0.00 0.00 0.01 0.01 0.01 0.01 0.01 0.01 0.00 0.00 0.00
0.02 0.03 0.02 0.01 0.02 0.04 0.07 0.12 0.21 0.23 0.21 0.18 0.15 0.13 0.11 0.09 0.08 0.08 0.08 0.07 0.05 0.06 0.06 0.07 0.08 0.09 0.08 0.07 0.07 0.05 0.04 0.02 0.01 0.01 0.01 0.01 0.01 0.01 0.01 0.01 0.00 0.00 0.00
0.02 0.03 0.02 0.01 0.02 0.03 0.05 0.09 0.15 0.20 0.21 0.16 0.15 0.14 0.13 0.12 0.08 0.07 0.08 0.07 0.06 0.05 0.06 0.06 0.08 0.09 0.08 0.08 0.07 0.07 0.06 0.04 0.02 0.02 0.02 0.02 0.02 0.01 0.01 0.00 0.00 0.00 0.00
0.02 0.02 0.02 0.02 0.02 0.03 0.04 0.07 0.12 0.14 0.18 0.15 0.12 0.13 0.13 0.12 0.09 0.08 0.08 0.08 0.07 0.07 0.07 0.08 0.09 0.09 0.09 0.09 0.10 0.09 0.06 0.04 0.03 0.02 0.02 0.02 0.01 0.01 0.01 0.00 0.00 0.00 0.00
0.03 0.03 0.03 0.03 0.03 0.03 0.04 0.06 0.10 0.10 0.12 0.12 0.09 0.10 0.11 0.11 0.10 0.08 0.09 0.09 0.09 0.09 0.10 0.11 0.11 0.09 0.09 0.09 0.08 0.07 0.06 0.04 0.03 0.02 0.02 0.02 0.01 0.01 0.00 0.00 0.00 0.00 0.00
0.03 0.03 0.03 0.04 0.04 0.03 0.05 0.06 0.08 0.08 0.08 0.09 0.07 0.07 0.08 0.08 0.09 0.10 0.10 0.10 0.10 0.09 0.09 0.10 0.10 0.09 0.08 0.07 0.06 0.05 0.04 0.03 0.02 0.02 0.01 0.01 0.01 0.01 0.00 0.00 0.00 0.00 0.00
0.04 0.03 0.03 0.04 0.05 0.05 0.05 0.07 0.09 0.09 0.07 0.07 0.06 0.07 0.07 0.08 0.09 0.10 0.11 0.11 0.11 0.11 0.10 0.09 0.08 0.08 0.08 0.07 0.07 0.06 0.04 0.03 0.02 0.02 0.01 0.01 0.01 0.01 0.00 0.00 0.00 0.00 0.00
0.04 0.03 0.03 0.04 0.05 0.06 0.06 0.06 0.08 0.09 0.09 0.09 0.09 0.09 0.09 0.09 0.11 0.11 0.11 0.10 0.10 0.10 0.09 0.07 0.07 0.06 0.06 0.07 0.07 0.06 0.04 0.03 0.02 0.02 0.01 0.01 0.01 0.00 0.00 0.00 0.00 0.01 0.01
0.04 0.04 0.03 0.04 0.05 0.06 0.07 0.06 0.07 0.07 0.08 0.10 0.13 0.14 0.13 0.11 0.11 0.11 0.11 0.11 0.12 0.11 0.08 0.07 0.07 0.06 0.06 0.06 0.06 0.06 0.05 0.03 0.02 0.02 0.01 0.01 0.01 0.01 0.01 0.01 0.01 0.01 0.01
0.04 0.04 0.03 0.04 0.05 0.06 0.06 0.07 0.08 0.08 0.06 0.08 0.12 0.16 0.16 0.14 0.12 0.12 0.11 0.09 0.09 0.09 0.09 0.08 0.07 0.07 0.06 0.06 0.05 0.04 0.04 0.03 0.02 0.01 0.01 0.01 0.01 0.01 0.01 0.01 0.02 0.02 0.02
0.03 0.03 0.04 0.04 0.05 0.06 0.07 0.07 0.08 0.08 0.07 0.07 0.10 0.12 0.14 0.14 0.13 0.13 0.12 0.10 0.09 0.08 0.07 0.07 0.07 0.07 0.07 0.05 0.04 0.04 0.03 0.03 0.02 0.01 0.01 0.01 0.02 0.02 0.02 0.02 0.02 0.02 0.02
0.02 0.03 0.04 0.04 0.05 0.06 0.07 0.08 0.07 0.08 0.08 0.07 0.09 0.10 0.10 0.09 0.10 0.10 0.11 0.10 0.08 0.07 0.06 0.07 0.07 0.07 0.06 0.05 0.04 0.03 0.03 0.02 0.02 0.01 0.01 0.01 0.01 0.02 0.02 0.03 0.03 0.02 0.02
0.02 0.02 0.03 0.04 0.05 0.06 0.07 0.08 0.08 0.08 0.08 0.08 0.08 0.10 0.11 0.09 0.08 0.08 0.08 0.09 0.10 0.08 0.07 0.07 0.08 0.07 0.06 0.05 0.03 0.02 0.02 0.02 0.02 0.01 0.01 0.01 0.01 0.01 0.01 0.02 0.02 0.02 0.02
0.02 0.03 0.03 0.04 0.06 0.07 0.08 0.09 0.09 0.09 0.08 0.08 0.08 0.09 0.10 0.10 0.08 0.06 0.07 0.08 0.10 0.09 0.09 0.08 0.08 0.07 0.06 0.05 0.03 0.03 0.02 0.02 0.01 0.01 0.02 0.02 0.01 0.01 0.01 0.01 0.01 0.01 0.01
0.03 0.03 0.04 0.05 0.07 0.08 0.08 0.08 0.09 0.09 0.09 0.08 0.08 0.07 0.08 0.09 0.08 0.07 0.07 0.08 0.09 0.09 0.08 0.08 0.08 0.06 0.05 0.04 0.03 0.03 0.02 0.02 0.02 0.02 0.02 0.02 0.02 0.02 0.02 0.01 0.01 0.01 0.01
0.03 0.04 0.04 0.05 0.06 0.07 0.07 0.08 0.10 0.11 0.10 0.08 0.08 0.07 0.08 0.09 0.09 0.08 0.08 0.08 0.08 0.07 0.07 0.07 0.07 0.05 0.04 0.03 0.03 0.02 0.02 0.03 0.02 0.02 0.02 0.02 0.02 0.02 0.02 0.02 0.01 0.01 0.01
0.04 0.04 0.05 0.05 0.06 0.07 0.08 0.09 0.10 0.10 0.10 0.10 0.09 0.07 0.07 0.08 0.09 0.09 0.09 0.08 0.07 0.07 0.06 0.06 0.05 0.04 0.04 0.04 0.04 0.03 0.03 0.03 0.03 0.02 0.02 0.02 0.02 0.02 0.02 0.02 0.02 0.02 0.02
MSLP
1006.76 1006.89 1007.05 1007.16 1007.16 1007.01 1006.69 1006.22 1005.62 1004.95 1004.25 1003.58 1003.01 1002.57 1002.30 1002.20 1002.28 1002.55 1002.97 1003.52 1004.17 1004.87 1005.59 1006.29 1006.93 1007.52 1008.02 1008.47 1008.87 1009.25 1009.64 1010.06 1010.52 1011.01 1011.53 1012.05 1012.54 1012.99 1013.37 1013.68 1013.93 1014.13 1014.30
1006.35 1006.48 1006.62 1006.71 1006.71 1006.56 1006.24 1005.78 1005.19 1004.52 1003.82 1003.15 1002.55 1002.08 1001.76 1001.62 1001.67 1001.90 1002.30 1002.84 1003.49 1004.21 1004.95 1005.67 1006.35 1006.96 1007.50 1007.98 1008.41 1008.83 1009.25 1009.71 1010.20 1010.73 1011.29 1011.86 1012.39 1012.88 1013.30 1013.65 1013.93 1014.16 1014.35
1006.03 1006.14 1006.25 1006.30 1006.26 1006.08 1005.75 1005.29 1004.70 1004.04 1003.35 1002.67 1002.05 1001.55 1001.20 1001.02 1001.02 1001.21 1001.58 1002.11 1002.77 1003.50 1004.27 1005.03 1005.75 1006.41 1007.00 1007.52 1008.00 1008.44 1008.90 1009.38 1009.89 1010.45 1011.03 1011.62 1012.19 1012.72 1013.18 1013.58 1013.91 1014.18 1014.40
1005.78 1005.85 1005.91 1005.90 1005.80 1005.58 1005.23 1004.76 1004.18 1003.53 1002.84 1002.17 1001.55 1001.03 1000.64 1000.41 1000.36 1000.50 1000.83 1001.34 1001.98 1002.73 1003.53 1004.34 1005.12 1005.85 1006.50 1007.08 1007.60 1008.09 1008.57 1009.07 1009.59 1010.15 1010.73 1011.34 1011.93 1012.49 1013.01 1013.46 1013.85 1014.18 1014.46
1005.55 1005.56 1005.55 1005.48 1005.31 1005.04 1004.67 1004.19 1003.63 1003.00 1002.34 1001.68 1001.06 1000.52 1000.08 999.80 999.69 999.77 1000.04 1000.50 1001.13 1001.89 1002.72 1003.59 1004.44 1005.25 1005.99 1006.64 1007.23 1007.76 1008.27 1008.78 1009.30 1009.85 1010.43 1011.03 1011.64 1012.23 1012.80 1013.31 1013.77 1014.17 1014.51
1005.27 1005.22 1005.13 1004.98 1004.76 1004.45 1004.06 1003.59 1003.05 1002.46 1001.84 1001.20 1000.58 1000.02 999.54 999.19 999.00 999.01 999.21 999.63 1000.23 1000.99 1001.86 1002.79 1003.73 1004.63 1005.47 1006.22 1006.88 1007.47 1008.01 1008.53 1009.06 1009.60 1010.16 1010.76 1011.37 1011.99 1012.60 1013.17 1013.69 1014.16 1014.56
1004.88 1004.76 1004.60 1004.38 1004.10 1003.77 1003.38 1002.95 1002.45 1001.91 1001.33 1000.72 1000.11 999.52 998.99 998.58 998.31 998.23 998.36 998.73 999.31 1000.08 1000.99 1001.99 1003.02 1004.03 1004.97 1005.83 1006.58 1007.24 1007.84 1008.38 1008.91 1009.44 1010.00 1010.59 1011.20 1011.84 1012.47 1013.08 1013.66 1014.19 1014.64
1004.36 1004.16 1003.92 1003.64 1003.34 1003.01 1002.65 1002.25 1001.82 1001.33 1000.80 1000.22 999.61 998.99 998.42 997.93 997.59 997.43 997.51 997.82 998.39 999.18 1000.14 1001.22 1002.35 1003.48 1004.54 1005.52 1006.37 1007.12 1007.78 1008.37 1008.91 1009.45 1010.00 1010.59 1011.20 1011.83 1012.48 1013.12 1013.73 1014.29 1014.77
1003.68 1003.41 1003.11 1002.80 1002.49 1002.18 1001.85 1001.52 1001.14 1000.71 1000.22 999.66 999.05 998.41 997.79 997.25 996.84 996.63 996.66 996.96 997.54 998.36 999.38 1000.55 1001.79 1003.04 1004.23 1005.33 1006.30 1007.14 1007.87 1008.52 1009.10 1009.66 1010.21 1010.79 1011.39 1012.02 1012.66 1013.30 1013.91 1014.48 1014.97
1002.87 1002.54 1002.21 1001.89 1001.59 1001.31 1001.04 1000.75 1000.43 1000.05 999.59 999.04 998.42 997.75 997.10 996.52 996.08 995.84 995.86 996.17 996.78 997.67 998.77 1000.04 1001.39 1002.76 1004.08 1005.29 1006.37 1007.31 1008.12 1008.83 1009.46 1010.04 1010.62 1011.20 1011.79 1012.40 1013.02 1013.64 1014.22 1014.76 1015.23
1001.98 1001.61 1001.27 1000.96 1000.69 1000.45 1000.23 999.99 999.71 999.35 998.89 998.34 997.70 997.01 996.33 995.74 995.29 995.07 995.12 995.49 996.17 997.14 998.35 999.72 1001.18 1002.66 1004.09 1005.40 1006.58 1007.61 1008.50 1009.27 1009.96 1010.58 1011.17 1011.76 1012.34 1012.93 1013.52 1014.09 1014.63 1015.11 1015.52
1001.05 1000.68 1000.35 1000.07 999.84 999.64 999.46 999.24 998.97 998.61 998.13 997.56 996.89 996.18 995.50 994.92 994.51 994.34 994.47 994.93 995.72 996.80 998.11 999.59 1001.16 1002.73 1004.25 1005.64 1006.90 1008.00 1008.95 1009.78 1010.52 1011.18 1011.80 1012.40 1012.98 1013.55 1014.09 1014.61 1015.08 1015.48 1015.82
1000.12 999.77 999.48 999.24 999.06 998.90 998.73 998.52 998.23 997.84 997.32 996.70 996.00 995.29 994.62 994.08 993.74 993.68 993.92 994.51 995.43 996.63 998.06 999.64 1001.30 1002.94 1004.51 1005.96 1007.26 1008.41 1009.41 1010.28 1011.06 1011.76 1012.41 1013.03 1013.61 1014.16 1014.66 1015.12 1015.52 1015.84 1016.08
999.23 998.92 998.68 998.50 998.35 998.22 998.05 997.82 997.49 997.04 996.47 995.80 995.07 994.36 993.72 993.25 993.02 993.08 993.48 994.22 995.29 996.62 998.16 999.83 1001.54 1003.23 1004.82 1006.29 1007.61 1008.77 1009.80 1010.70 1011.52 1012.26 1012.94 1013.57 1014.16 1014.70 1015.18 1015.58 1015.91 1016.15 1016.30
998.36 998.11 997.93 997.80 997.69 997.57 997.39 997.12 996.73 996.21 995.58 994.87 994.12 993.42 992.85 992.48 992.37 992.59 993.15 994.06 995.27 996.73 998.36 1000.09 1001.84 1003.54 1005.13 1006.58 1007.89 1009.05 1010.08 1011.01 1011.85 1012.62 1013.34 1014.00 1014.61 1015.14 1015.60 1015.96 1016.23 1016.40 1016.47
997.50 997.31 997.19 997.10 997.02 996.90 996.69 996.37 995.92 995.35 994.66 993.92 993.18 992.53 992.04 991.79 991.84 992.22 992.95 994.01 995.36 996.92 998.63 1000.40 1002.15 1003.83 1005.39 1006.81 1008.08 1009.22 1010.25 1011.18 1012.05 1012.86 1013.61 1014.31 1014.93 1015.48 1015.93 1016.27 1016.49 1016.61 1016.61
996.61 996.48 996.41 996.36 996.29 996.15 995.91 995.55 995.05 994.43 993.73 992.99 992.29 991.71 991.33 991.23 991.43 991.98 992.87 994.08 995.54 997.18 998.93 1000.70 1002.44 1004.08 1005.60 1006.96 1008.20 1009.31 1010.33 1011.27 1012.16 1013.00 1013.79 1014.52 1015.18 1015.75 1016.20 1016.54 1016.74 1016.81 1016.77
995.70 995.61 995.56 995.52 995.45 995.29 995.03 994.63 994.11 993.48 992.79 992.09 991.47 991.01 990.77 990.82 991.19 991.90 992.93 994.25 995.80 997.49 999.25 1001.01 1002.71 1004.30 1005.76 1007.08 1008.27 1009.36 1010.37 1011.33 1012.24 1013.11 1013.94 1014.71 1015.40 1015.99 1016.46 1016.80 1016.99 1017.04 1016.97
994.77 994.68 994.64 994.59 994.49 994.31 994.02 993.61 993.09 992.49 991.86 991.26 990.76 990.45 990.37 990.59 991.13 991.99 993.14 994.55 996.15 997.86 999.61 1001.33 1002.98 1004.51 1005.92 1007.19 1008.35 1009.43 1010.44 1011.40 1012.34 1013.24 1014.10 1014.91 1015.63 1016.24 1016.73 1017.07 1017.27 1017.32 1017.23
993.82 993.72 993.65 993.56 993.43 993.22 992.92 992.52 992.04 991.51 990.99 990.52 990.19 990.06 990.17 990.57 991.27 992.25 993.51 994.98 996.60 998.30 1000.01 1001.69 1003.28 1004.75 1006.11 1007.35 1008.48 1009.55 1010.57 1011.55 1012.50 1013.43 1014.32 1015.15 1015.89 1016.52 1017.02 1017.37 1017.57 1017.62 1017.53
992.89 992.75 992.62 992.48 992.31 992.07 991.76 991.40 990.99 990.58 990.20 989.92 989.79 989.86 990.18 990.76 991.61 992.72 994.04 995.55 997.16 998.83 1000.50 1002.11 1003.64 1005.06 1006.37 1007.58 1008.71 1009.77 1010.80 1011.79 1012.76 1013.70 1014.60 1015.43 1016.17 1016.80 1017.31 1017.67 1017.87 1017.93 1017.85
992.00 991.80 991.61 991.41 991.19 990.93 990.64 990.33 990.03 989.76 989.57 989.49 989.59 989.88 990.40 991.16 992.16 993.36 994.75 996.26 997.86 999.48 1001.08 1002.63 1004.09 1005.46 1006.73 1007.92 1009.04 1010.10 1011.13 1012.13 1013.10 1014.04 1014.92 1015.74 1016.46 1017.08 1017.57 1017.93 1018.14 1018.21 1018.14
991.16 990.90 990.65 990.39 990.14 989.88 989.63 989.40 989.22 989.12 989.13 989.28 989.61 990.13 990.86 991.79 992.91 994.20 995.62 997.13 998.69 1000.25 1001.78 1003.25 1004.65 1005.97 1007.21 1008.37 1009.48 1010.54 1011.56 1012.55 1013.51 1014.42 1015.27 1016.05 1016.74 1017.33 1017.80 1018.14 1018.34 1018.42 1018.36
990.36 990.06 989.77 989.49 989.22 988.98 988.79 988.67 988.64 988.72 988.94 989.32 989.88 990.62 991.53 992.62 993.85 995.20 996.64 998.13 999.64 1001.13 1002.59 1003.99 1005.33 1006.59 1007.80 1008.94 1010.03 1011.07 1012.08 1013.04 1013.96 1014.83 1015.63 1016.36 1016.99 1017.53 1017.96 1018.28 1018.48 1018.56 1018.51
989.58 989.28 988.99 988.72 988.48 988.29 988.19 988.19 988.32 988.59 989.02 989.62 990.39 991.32 992.41 993.63 994.95 996.34 997.78 999.24 1000.70 1002.12 1003.50 1004.83 1006.10 1007.32 1008.48 1009.59 1010.66 1011.68 1012.66 1013.58 1014.45 1015.26 1016.00 1016.66 1017.23 1017.72 1018.10 1018.39 1018.57 1018.65 1018.60
988.82 988.57 988.32 988.10 987.93 987.84 987.86 988.00 988.29 988.75 989.38 990.18 991.14 992.24 993.46 994.78 996.16 997.58 999.01 1000.44 1001.83 1003.18 1004.49 1005.75 1006.96 1008.13 1009.25 1010.33 1011.36 1012.35 1013.29 1014.17 1014.99 1015.73 1016.40 1016.99 1017.49 1017.91 1018.25 1018.50 1018.67 1018.74 1018.70
Thickness
5503 5509 5514 5520 5528 5535 5542 5550 5558 5565 5572 5577 5584 5589 5594 5597 5601 5604 5606 5607 5607 5607 5607 5606 5606 5606 5605 5603 5601 5600 5598 5596 5591 5584 5579 5575 5571 5567 5562 5558 5553 5548 5543
5495 5501 5507 5514 5521 5528 5536 5544 5553 5560 5567 5573 5579 5585 5589 5593 5596 5599 5602 5603 5604 5604 5604 5603 5603 5602 5600 5598 5596 5595 5593 5590 5586 5579 5572 5568 5564 5560 5555 5550 5545 5540 5535
5487 5493 5500 5506 5513 5522 5531 5540 5549 5555 5562 5569 5575 5581 5585 5589 5593 5595 5598 5599 5600 5601 5602 5602 5601 5599 5597 5594 5592 5590 5587 5584 5580 5574 5567 5561 5556 5552 5547 5542 5537 5531 5527
5480 5486 5493 5500 5508 5516 5527 5535 5544 5551 5558 5566 5573 5577 5581 5585 5589 5591 5593 5594 5595 5596 5598 5598 5598 5597 5596 5592 5588 5585 5581 5577 5572 5567 5561 5554 5549 5544 5539 5533 5527 5522 5517
5472 5479 5487 5495 5503 5511 5520 5529 5538 5546 5554 5561 5567 5572 5577 5581 5585 5587 5589 5590 5591 5591 5592 5593 5595 5595 5593 5589 5586 5581 5577 5572 5566 5561 5555 5548 5542 5537 5532 5526 5520 5513 5508
5466 5474 5481 5488 5496 5505 5514 5523 5532 5540 5547 5555 5561 5567 5572 5578 5581 5583 5586 5587 5588 5589 5589 5589 5590 5588 5586 5584 5582 5578 5575 5570 5563 5557 5551 5545 5540 5533 5526 5519 5511 5504 5500
5462 5469 5477 5484 5491 5500 5509 5517 5527 5536 5543 5550 5557 5563 5569 5574 5576 5578 5581 5584 5585 5586 5586 5585 5584 5584 5582 5579 5575 5572 5568 5566 5563 5557 5549 5544 5536 5530 5522 5513 5505 5498 5491
5458 5465 5472 5479 5487 5495 5503 5512 5522 5531 5538 5545 5553 5560 5565 5569 5571 5574 5577 5579 5580 5581 5581 5581 5580 5578 5577 5574 5569 5564 5560 5557 5555 5551 5546 5539 5532 5526 5518 5511 5501 5490 5482
5453 5460 5467 5475 5482 5489 5497 5505 5515 5525 5534 5541 5548 5554 5560 5564 5567 5570 5572 5573 5574 5574 5575 5575 5575 5573 5572 5568 5564 5558 5552 5547 5545 5542 5537 5531 5525 5518 5511 5502 5492 5483 5474
5448 5455 5461 5468 5476 5483 5491 5499 5508 5518 5527 5536 5542 5548 5554 5559 5562 5565 5567 5569 5569 5568 5568 5569 5569 5568 5566 5564 5560 5554 5547 5541 5536 5531 5525 5520 5514 5509 5503 5497 5488 5477 5467
5442 5449 5455 5461 5469 5478 5486 5494 5503 5512 5521 5529 5537 5543 5548 5554 5556 5559 5561 5565 5566 5564 5563 5563 5563 5562 5561 5558 5555 5551 5546 5537 5529 5523 5516 5510 5504 5498 5493 5487 5481 5473 5462
5434 5442 5448 5455 5463 5472 5480 5488 5497 5506 5513 5522 5530 5536 5542 5546 5550 5553 5556 5560 5561 5561 5560 5559 5558 5556 5554 5552 5548 5545 5538 5529 5522 5515 5508 5502 5496 5490 5484 5478 5472 5465 5458
5427 5434 5441 5448 5456 5465 5474 5483 5491 5499 5507 5516 5524 5530 5535 5539 5543 5547 5550 5552 5554 5554 5554 5554 5551 5548 5546 5543 5540 5535 5529 5523 5516 5509 5503 5496 5490 5483 5476 5469 5462 5455 5448
5419 5427 5433 5441 5449 5458 5468 5478 5486 5494 5501 5510 5517 5524 5529 5533 5537 5539 5542 5543 5544 5545 5545 5543 5541 5540 5537 5534 5529 5525 5521 5517 5512 5506 5498 5489 5481 5475 5468 5462 5454 5447 5439
5411 5419 5427 5435 5443 5452 5461 5471 5481 5490 5498 5506 5513 5520 5525 5528 5532 5536 5538 5539 5540 5540 5536 5533 5531 5530 5528 5524 5520 5516 5513 5508 5503 5497 5490 5482 5475 5469 5461 5455 5447 5440 5431
5403 5412 5420 5428 5437 5446 5455 5465 5475 5484 5493 5501 5509 5515 5519 5523 5526 5529 5531 5532 5533 5532 5530 5528 5527 5525 5524 5520 5516 5511 5506 5502 5497 5491 5484 5477 5470 5463 5455 5447 5441 5433 5425
5396 5405 5413 5422 5430 5439 5448 5458 5468 5477 5486 5494 5502 5508 5514 5517 5519 5522 5524 5524 5525 5525 5525 5524 5522 5521 5518 5515 5511 5507 5501 5496 5491 5485 5478 5472 5465 5457 5450 5442 5435 5427 5419
5390 5398 5407 5415 5424 5432 5441 5451 5462 5471 5478 5485 5493 5500 5506 5510 5512 5515 5516 5517 5517 5519 5520 5519 5518 5516 5513 5509 5505 5500 5495 5489 5484 5479 5473 5466 5459 5452 5445 5438 5431 5423 5415
5384 5392 5401 5410 5418 5427 5435 5445 5455 5463 5470 5477 5484 5490 5497 5501 5504 5507 5510 5514 5515 5514 5514 5514 5513 5510 5507 5503 5499 5494 5490 5485 5479 5474 5467 5460 5454 5448 5440 5433 5426 5420 5411
5378 5387 5396 5404 5413 5422 5430 5438 5447 5456 5463 5471 5477 5483 5488 5492 5496 5499 5503 5507 5509 5510 5509 5509 5507 5504 5502 5498 5493 5489 5484 5479 5473 5468 5462 5455 5449 5443 5437 5429 5422 5414 5406
5372 5381 5391 5400 5408 5416 5424 5432 5441 5449 5457 5464 5471 5477 5484 5488 5492 5494 5498 5500 5503 5505 5505 5503 5501 5498 5496 5492 5489 5484 5480 5475 5469 5463 5457 5451 5445 5439 5432 5425 5418 5410 5403
5368 5377 5386 5394 5403 5411 5418 5426 5435 5444 5452 5459 5465 5470 5476 5481 5485 5489 5491 5494 5497 5499 5499 5498 5496 5494 5492 5489 5486 5481 5476 5470 5465 5459 5453 5447 5441 5434 5427 5420 5413 5406 5399
5365 5373 5382 5390 5399 5408 5415 5422 5430 5439 5447 5454 5460 5465 5469 5474 5479 5482 5485 5488 5490 5491 5491 5491 5490 5487 5484 5482 5481 5479 5474 5469 5463 5457 5450 5443 5437 5430 5424 5416 5409 5402 5395
5363 5370 5379 5387 5395 5402 5410 5418 5426 5434 5441 5448 5454 5459 5464 5468 5472 5476 5479 5480 5482 5483 5483 5483 5484 5482 5479 5476 5474 5471 5468 5464 5458 5452 5447 5441 5433 5426 5419 5412 5405 5399 5392
5362 5369 5377 5385 5392 5399 5407 5415 5422 5430 5436 5443 5449 5454 5459 5463 5466 5469 5471 5473 5475 5476 5476 5476 5476 5475 5473 5471 5468 5465 5462 5457 5453 5447 5442 5436 5429 5422 5415 5408 5402 5395 5389
5362 5369 5376 5383 5390 5397 5405 5412 5419 5426 5433 5439 5445 5450 5455 5458 5461 5463 5465 5467 5468 5468 5469 5469 5468 5468 5466 5464 5462 5459 5455 5451 5447 5442 5436 5430 5423 5417 5411 5405 5398 5392 5385